Regional Weather Roundup
Issued by NWS

Home | Current Version | Previous Version | Text Only | Print | Product List | Glossary Off
Versions: 1 2 3 4 5 6 7 8 9 10 11 12 13 14 15 16 17 18 19 20 21 22 23 24 25 26 27

000
ASUS45 KCYS 231910
RWRWY

WYOMING REGIONAL WEATHER ROUNDUP
NATIONAL WEATHER SERVICE CHEYENNE WY
100 PM MDT SAT SEP 23 2017

NOTE:  "FAIR" INDICATES FEW OR NO CLOUDS BELOW 12,000 FEET
WITH NO SIGNIFICANT WEATHER AND/OR OBSTRUCTIONS TO VISIBILITY.

WYZ001-232000-
YELLOWSTONE NATIONAL PARK

CITY           SKY/WX    TMP DP  RH WIND       PRES   REMARKS
LK YELLOWSTONE NOT AVBL
W YELLOWSTONE  NOT AVBL

$$
WYZ002>013-054>058-071-098>099-232000-
NORTHERN WYOMING

CITY           SKY/WX    TMP DP  RH WIND       PRES   REMARKS
JACKSON        CLOUDY    45  28  51 VRB3      29.99F
CODY           CLOUDY    40  36  86 N9        30.06F WCI  34
GREYBULL       CLOUDY    45  41  86 NW15      30.02F
WORLAND        CLOUDY    44  41  89 N6        30.03F
SHERIDAN       CLOUDY    42  41  96 N8        30.08S FOG
BUFFALO        CLOUDY    41  37  86 NE3       30.06S
GILLETTE       LGT RAIN  43  41  93 N9        30.04F
HULETT         CLOUDY    43  41  93 NE8       30.05F
NEWCASTLE      DRIZZLE   45  43  93 NW6       30.02F

$$
WYZ014>020-022>026-101>103-232000-
CENTRAL WYOMING

CITY           SKY/WX    TMP DP  RH WIND       PRES   REMARKS
BIG PINEY      FAIR      46  32  58 VRB3      29.98S
PINEDALE       MOCLDY    43  32  65 CALM      29.99R
DUBOIS         CLOUDY    37  34  87 SE7       29.99S WCI  32
LANDER           N/A    N/A N/A N/A MISG      30.01R
RIVERTON       LGT RAIN  40  40 100 N5        30.03R FOG
CASPER         CLOUDY    42  40  92 N12       29.99F
DOUGLAS        RAIN      45  43  93 SE7       30.04F FOG

$$
WYZ021-027>030-104>119-232000-
SOUTHERN WYOMING

CITY           SKY/WX    TMP DP  RH WIND       PRES   REMARKS
EVANSTON       CLOUDY    41  34  76 N10       29.96S
KEMMERER         N/A     43  32  65 NE5       29.97S
FORT BRIDGER   CLOUDY    42  39  91 NE9       29.98F
ROCK SPRINGS   CLOUDY    43  40  89 NE10      29.95F
DIXON          MOCLDY    55  36  49 E12       29.94F
RAWLINS        CLOUDY    50  40  68 E7        29.96F
SARATOGA       CLOUDY    45  39  81 SE12G23   29.97F
LARAMIE        CLOUDY    44  40  85 N8        29.99F
CHEYENNE       CLOUDY    48  39  71 NE8       30.00F
TORRINGTON     CLOUDY    45  43  93 NE5       30.04R FOG
PINE BLUFFS    CLOUDY    43  43 100 MISG      30.02F FOG

$$




USA.gov is the U.S. government's official web portal to all federal, state and local government web resources and services.